EW4492 Weather Reports


Display with metric or nautical units.
time (UTC)temp
F
wind
direction
speed
MPH
gust
MPH
rain 1hr
in
rain 24hr
in
rain mn
in
humidity
%
barometer
mb
20260902023334 72 255 6.0 10.0 0.00 0.00 0.00 38 1006.1
20260902022329 73 247 7.0 9.0 0.00 0.00 0.00 37 1006.1
20260902021348 74 250 7.0 9.0 0.00 0.00 0.00 35 1006.0
20260902020358 75 275 6.0 13.0 0.00 0.00 0.00 35 1006.0
20260902015328 76 266 8.0 12.0 0.00 0.00 0.00 36 1005.9
20260902014337 77 265 8.0 13.0 0.00 0.00 0.00 37 1006.0
20260902013351 78 263 10.0 14.0 0.00 0.00 0.00 36 1006.0
20260902012336 78 273 7.0 9.0 0.00 0.00 0.00 35 1005.9
20260902011420 79 284 2.0 5.0 0.00 0.00 0.00 35 1005.9
20260902010400 79 273 2.0 5.0 0.00 0.00 0.00 35 1005.7
20260902005341 80 271 3.0 6.0 0.00 0.00 0.00 35 1005.7
20260902004333 80 283 3.0 6.0 0.00 0.00 0.00 35 1005.7
20260902003328 80 278 0.0 2.0 0.00 0.00 0.00 35 1005.7
20260902002328 80 277 1.0 7.0 0.00 0.00 0.00 35 1005.7
20260902001329 81 262 6.0 8.0 0.00 0.00 0.00 32 1005.6
20260902000339 81 277 3.0 13.0 0.00 0.00 0.00 33 1005.6
20260901235327 81 252 8.0 17.0 0.00 0.00 0.00 30 1005.7
20260901234330 81 257 4.0 8.0 0.00 0.00 0.00 31 1005.7
20260901233328 81 303 7.0 14.0 0.00 0.00 0.00 32 1005.7
20260901232407 81 274 5.0 14.0 0.00 0.00 0.00 32 1005.9
20260901231337 81 251 8.0 11.0 0.00 0.00 0.00 33 1005.9
20260901230336 81 288 8.0 15.0 0.00 0.00 0.00 33 1006.0
20260901225337 80 277 9.0 15.0 0.00 0.00 0.00 34 1006.1
20260901224340 80 267 10.0 15.0 0.00 0.00 0.00 34 1006.1
20260901223333 79 251 9.0 15.0 0.00 0.00 0.00 37 1006.2
20260901222343 79 258 10.0 14.0 0.00 0.00 0.00 38 1006.3
20260901221352 78 258 10.0 14.0 0.00 0.00 0.00 39 1006.6
20260901220352 78 273 12.0 17.0 0.00 0.00 0.00 38 1006.6
20260901215348 78 279 9.0 15.0 0.00 0.00 0.00 39 1006.6
20260901214350 78 285 10.0 17.0 0.00 0.00 0.00 40 1006.4
20260901213343 77 264 11.0 15.0 0.00 0.00 0.00 41 1006.6
20260901212348 77 274 7.0 13.0 0.00 0.00 0.00 41 1006.8
20260901211410 77 257 11.0 14.0 0.00 0.00 0.00 41 1006.9
20260901210333 77 286 8.0 14.0 0.00 0.00 0.00 42 1007.1
20260901205342 76 258 11.0 16.0 0.00 0.00 0.00 41 1007.3
20260901204340 75 267 8.0 14.0 0.00 0.00 0.00 45 1007.3
20260901203353 75 263 12.0 17.0 0.00 0.00 0.00 45 1007.3
20260901202341 75 293 10.0 16.0 0.00 0.00 0.00 44 1007.4
20260901201343 75 269 10.0 18.0 0.00 0.00 0.00 45 1007.5
20260901200413 74 264 12.0 18.0 0.00 0.00 0.00 47 1007.5
20260901195339 73 277 12.0 17.0 0.00 0.00 0.00 47 1007.7
20260901194329 73 267 12.0 16.0 0.00 0.00 0.00 47 1007.8
20260901193339 71 251 9.0 12.0 0.00 0.00 0.00 51 1007.7
20260901192338 70 271 9.0 12.0 0.00 0.00 0.00 52 1008.1
20260901191338 69 274 7.0 10.0 0.00 0.00 0.00 54 1008.5
20260901190351 69 265 4.0 12.0 0.00 0.00 0.00 54 1008.7
20260901185358 69 271 6.0 8.0 0.00 0.00 0.00 53 1008.5
20260901184354 69 249 5.0 7.0 0.00 0.00 0.00 53 1008.5
20260901183329 69 263 4.0 8.0 0.00 0.00 0.00 53 1008.5
20260901182340 69 269 5.0 8.0 0.00 0.00 0.00 53 1008.5
20260901181347 69 258 7.0 9.0 0.00 0.00 0.00 52 1008.5
20260901180337 68 273 7.0 14.0 0.00 0.00 0.00 51 1008.7
20260901175352 69 257 11.0 14.0 0.00 0.00 0.00 50 1008.5
20260901174346 69 259 8.0 10.0 0.00 0.00 0.00 50 1008.3
20260901173334 68 282 3.0 8.0 0.00 0.00 0.00 51 1008.0
20260901172406 68 290 6.0 9.0 0.00 0.00 0.00 50 1008.3
20260901171352 68 277 7.0 11.0 0.00 0.00 0.00 50 1008.6
20260901170344 68 261 9.0 13.0 0.00 0.00 0.00 49 1008.7
20260901165337 68 283 9.0 15.0 0.00 0.00 0.00 49 1008.6
20260901164343 68 254 11.0 16.0 0.00 0.00 0.00 48 1008.9
20260901163353 68 273 9.0 13.0 0.00 0.00 0.00 47 1008.3
20260901162400 68 282 10.0 14.0 0.00 0.00 0.00 47 1008.1
20260901161334 69 276 10.0 12.0 0.00 0.00 0.00 46 1008.1
20260901160403 69 271 9.0 11.0 0.00 0.00 0.00 45 1008.0
20260901155334 69 255 8.0 11.0 0.00 0.00 0.00 44 1008.1
20260901154343 69 268 9.0 13.0 0.00 0.00 0.00 43 1008.2
20260901153328 69 251 8.0 12.0 0.00 0.00 0.00 44 1008.2
20260901152341 67 267 5.0 8.0 0.00 0.00 0.00 45 1008.3
20260901151341 64 159 0.0 3.0 0.00 0.00 0.00 46 1008.2
20260901150407 62 145 2.0 4.0 0.00 0.00 0.00 47 1008.1
20260901145332 61 147 3.0 5.0 0.00 0.00 0.00 48 1008.1
20260901144401 60 144 1.0 2.0 0.00 0.00 0.00 49 1007.8
20260901143334 59 145 0.0 3.0 0.00 0.00 0.00 50 1007.9
20260901142336 58 146 3.0 4.0 0.00 0.00 0.00 52 1007.8
20260901141346 57 152 0.0 1.0 0.00 0.00 0.00 52 1007.8
20260901140415 56 152 1.0 2.0 0.00 0.00 0.00 53 1007.8
20260901135401 56 151 0.0 2.0 0.00 0.00 0.00 52 1007.6
20260901134335 56 151 2.0 3.0 0.00 0.00 0.00 52 1007.4
20260901133333 56 152 0.0 4.0 0.00 0.00 0.00 51 1007.3
20260901132408 57 146 0.0 3.0 0.00 0.00 0.00 50 1007.2
20260901131353 58 145 0.0 2.0 0.00 0.00 0.00 49 1007.1
20260901130340 58 145 0.0 1.0 0.00 0.00 0.00 50 1007.0
20260901125330 58 144 1.0 2.0 0.00 0.00 0.00 49 1006.8
20260901124337 58 144 2.0 4.0 0.00 0.00 0.00 50 1007.0
20260901123336 58 144 1.0 4.0 0.00 0.00 0.00 50 1007.0
20260901122335 58 148 3.0 4.0 0.00 0.00 0.00 51 1007.0
20260901121337 58 146 3.0 4.0 0.00 0.00 0.00 52 1007.0
20260901120332 57 153 2.0 4.0 0.00 0.00 0.00 52 1007.0
20260901115344 58 146 0.0 3.0 0.00 0.00 0.00 51 1006.9
20260901114358 59 146 0.0 0.0 0.00 0.00 0.00 50 1006.9
20260901113351 60 146 0.0 1.0 0.00 0.00 0.00 50 1006.9
20260901112338 61 146 0.0 2.0 0.00 0.00 0.00 50 1006.9
20260901111351 61 145 0.0 3.0 0.00 0.00 0.00 50 1007.0
20260901110331 61 148 2.0 4.0 0.00 0.00 0.00 50 1007.1
20260901105341 60 140 2.0 3.0 0.00 0.00 0.00 52 1007.2
20260901104335 59 139 2.0 5.0 0.00 0.00 0.00 53 1007.3
20260901103403 59 119 4.0 6.0 0.00 0.00 0.00 53 1007.3
20260901102348 58 148 1.0 4.0 0.00 0.00 0.00 54 1007.1
20260901101329 58 144 2.0 5.0 0.00 0.00 0.00 54 1007.3
20260901100357 58 147 4.0 5.0 0.00 0.00 0.00 54 1007.4
20260901095355 57 135 4.0 6.0 0.00 0.00 0.00 55 1007.5
20260901094334 56 153 4.0 8.0 0.00 0.00 0.00 55 1007.5
20260901093341 56 158 1.0 6.0 0.00 0.00 0.00 57 1007.5
20260901092327 54 148 1.0 6.0 0.00 0.00 0.00 57 1007.6
20260901091356 55 136 4.0 7.0 0.00 0.00 0.00 58 1007.6
20260901090356 55 149 4.0 7.0 0.00 0.00 0.00 57 1007.6
20260901085338 55 139 3.0 7.0 0.00 0.00 0.00 56 1007.6
20260901084327 55 151 2.0 7.0 0.00 0.00 0.00 57 1007.6
20260901083345 55 145 6.0 8.0 0.00 0.00 0.00 57 1007.5
20260901082331 56 163 0.0 3.0 0.00 0.00 0.00 56 1007.7
20260901081350 55 161 3.0 7.0 0.00 0.00 0.00 57 1007.7
20260901080346 56 153 2.0 6.0 0.00 0.00 0.00 54 1007.8
20260901075327 56 157 0.0 2.0 0.00 0.00 0.00 55 1007.7
20260901074351 57 150 5.0 6.0 0.00 0.00 0.00 52 1007.6
20260901073333 58 151 0.0 3.0 0.00 0.00 0.00 55 1007.6
20260901072345 58 151 1.0 4.0 0.00 0.00 0.00 51 1007.8
20260901071338 59 151 0.0 2.0 0.00 0.00 0.00 51 1007.7
20260901070406 60 150 0.0 4.0 0.00 0.00 0.00 50 1007.5
20260901065332 60 146 1.0 3.0 0.00 0.00 0.00 51 1007.4
20260901064359 60 140 6.0 8.0 0.00 0.00 0.00 49 1007.5
20260901063332 61 166 0.0 8.0 0.00 0.00 0.00 49 1007.4
20260901062407 63 150 7.0 8.0 0.00 0.00 0.00 47 1007.4
20260901061336 65 157 1.0 6.0 0.00 0.00 0.00 46 1007.4
20260901060333 66 168 3.0 7.0 0.00 0.00 0.00 45 1007.3
20260901055354 67 259 0.0 0.0 0.00 0.00 0.00 44 1007.3
20260901054344 68 257 0.0 2.0 0.00 0.00 0.00 43 1007.5
20260901053452 69 257 1.0 5.0 0.00 0.00 0.00 42 1007.6
20260901052339 72 287 2.0 5.0 0.00 0.00 0.00 38 1007.9
20260901051348 72 290 1.0 2.0 0.00 0.00 0.00 40 1007.8
20260901050344 71 280 2.0 6.0 0.00 0.00 0.00 41 1007.4
20260901045346 71 271 4.0 6.0 0.00 0.00 0.00 40 1007.3
20260901044353 72 280 0.0 3.0 0.00 0.00 0.00 39 1007.3
20260901043330 72 280 1.0 4.0 0.00 0.00 0.00 39 1007.3
20260901042344 73 5 1.0 4.0 0.00 0.00 0.00 39 1007.4
20260901041337 73 5 2.0 6.0 0.00 0.00 0.00 39 1007.4
20260901040358 72 9 3.0 6.0 0.00 0.00 0.00 39 1007.4
20260901035352 72 5 5.0 7.0 0.00 0.00 0.00 39 1007.4
20260901034413 71 9 4.0 8.0 0.00 0.00 0.00 40 1007.4
20260901033402 72 9 2.0 4.0 0.00 0.00 0.00 38 1007.4
20260901032327 72 344 2.0 4.0 0.00 0.00 0.00 39 1007.4
20260901031352 72 297 0.0 3.0 0.00 0.00 0.00 39 1007.4
20260901030339 72 297 3.0 4.0 0.00 0.00 0.00 38 1007.3
20260901025344 73 301 3.0 5.0 0.00 0.00 0.00 37 1007.2
20260901024336 74 5 0.0 3.0 0.00 0.00 0.00 34 1007.3